Weather History for Adrian, MI

Change the Weather History Date:

Thursday, November 22, 2012

  Actual Average Record
Temperature  
Mean Temperature 47 °F -  
Max Temperature 61 °F 43 °F 63 °F (2010)
Min Temperature 33 °F 26 °F 11 °F (1984)
Degree Days  
Heating Degree Days 18    
Moisture  
Dew Point 39 °F    
Average Humidity 84    
Maximum Humidity 100    
Minimum Humidity 48    
Precipitation  
Precipitation 0.02 in - - ()
Sea Level Pressure  
Sea Level Pressure 30.10 in    
Wind  
Wind Speed 6 mph (SW)    
Max Wind Speed 21 mph    
Max Gust Speed 26 mph    
Visibility 4 miles    
Events Fog , Rain    
Averages and records for this station are not official NWS values.
T = Trace of Precipitation, MM = Missing Value Source: NWS Daily Summary

Daily Weather History Graph

Daily Weather History Graph

Search for Another Location

Airport:

Trip Planner

Search our weather history database for the weather conditions in past years. The results will help you decide how hot, cold, wet, or windy it might be!

Date:

Astronomy

Nov. 22, 2012 Rise Set
Actual Time 7:34 AM EST 5:10 PM EST
Civil Twilight 7:04 AM EST 5:40 PM EST
Nautical Twilight 6:30 AM EST 6:14 PM EST
Astronomical Twilight 5:56 AM EST 6:47 PM EST
Moon 1:59 PM EST (11/22) 1:49 AM EST (11/22)
Length of Visible Light 10h 36m
Length of Day
9h 35m
Waxing Gibbous, 71% of the Moon is Illuminated
Nov 22
Waxing Gibbous
Nov 28
Full
Dec 6
Last Quarter
Dec 13
New
Dec 20
First Quarter

Hourly Weather History & Observations

Time (EST) Temp. Windchill Dew Point Humidity Pressure Visibility Wind Dir Wind Speed Gust Speed Precip Events Conditions
12:15 AM 33.8 °F 30.8 °F 33.8 °F 100% 30.18 in 0.2 mi WSW 3.5 mph - N/A Fog Fog
12:28 AM 33.8 °F 30.8 °F 33.8 °F 100% 30.18 in 0.2 mi WSW 3.5 mph - N/A Fog Fog
12:50 AM 39.2 °F 35.9 °F 37.4 °F 93% 30.18 in 1.2 mi West 4.6 mph - N/A   Scattered Clouds
12:53 AM 39.0 °F 36.8 °F 39.0 °F 100% 30.20 in 1.2 mi West 3.5 mph - N/A   Scattered Clouds
1:16 AM 37.4 °F 34.9 °F 37.4 °F 100% 30.18 in 0.8 mi WSW 3.5 mph - N/A   Clear
1:30 AM 33.8 °F - 33.8 °F 100% 30.17 in 0.2 mi Calm Calm - N/A Fog Fog
1:37 AM 33.8 °F - 33.8 °F 100% 30.17 in 0.2 mi Calm Calm - N/A Fog Fog
1:53 AM 35.1 °F 32.2 °F 35.1 °F 100% 30.19 in 0.2 mi WSW 3.5 mph - N/A Fog Fog
2:27 AM 35.6 °F 32.8 °F 35.6 °F 100% 30.17 in 0.2 mi WSW 3.5 mph - N/A Fog Fog
2:37 AM 35.6 °F 32.8 °F 35.6 °F 100% 30.16 in 0.2 mi WSW 3.5 mph - N/A Fog Fog
2:53 AM 34.0 °F 31.0 °F 34.0 °F 100% 30.19 in 0.2 mi WSW 3.5 mph - N/A Fog Fog
3:53 AM 37.0 °F 34.5 °F 37.0 °F 100% 30.17 in 0.2 mi West 3.5 mph - N/A Fog Fog
4:53 AM 37.0 °F 33.3 °F 37.0 °F 100% 30.17 in 0.2 mi WSW 4.6 mph - N/A Fog Fog
5:53 AM 36.0 °F 32.1 °F 36.0 °F 100% 30.17 in 0.2 mi WSW 4.6 mph - N/A Fog Fog
6:53 AM 36.0 °F 33.3 °F 36.0 °F 100% 30.17 in 0.2 mi SW 3.5 mph - N/A Fog Fog
7:53 AM 36.0 °F 33.3 °F 35.1 °F 97% 30.17 in 0.2 mi WSW 3.5 mph - N/A Fog Fog
8:53 AM 37.0 °F 34.5 °F 36.0 °F 96% 30.17 in 0.2 mi WSW 3.5 mph - 0.01 in Fog Fog
9:46 AM 41.0 °F 37.1 °F 39.2 °F 93% 30.14 in 1.0 mi WSW 5.8 mph - N/A   Mist
9:53 AM 41.0 °F 36.4 °F 39.9 °F 96% 30.16 in 1.2 mi WSW 6.9 mph - N/A   Partly Cloudy
10:10 AM 42.8 °F 37.5 °F 41.0 °F 93% 30.13 in 1.8 mi WSW 9.2 mph - N/A   Clear
10:17 AM 42.8 °F 38.0 °F 41.0 °F 93% 30.13 in 2.0 mi WSW 8.1 mph - N/A   Clear
10:44 AM 48.2 °F - 42.8 °F 82% 30.12 in 3.0 mi WSW 10.4 mph - N/A   Haze
10:53 AM 48.9 °F - 43.0 °F 80% 30.14 in 3.0 mi WSW 10.4 mph - N/A   Haze
11:53 AM 55.9 °F - 44.1 °F 64% 30.10 in 5.0 mi WSW 17.3 mph 25.3 mph N/A   Haze
12:53 PM 57.9 °F - 44.1 °F 60% 30.07 in 7.0 mi WSW 16.1 mph 24.2 mph N/A   Clear
1:53 PM 60.1 °F - 43.0 °F 53% 30.05 in 7.0 mi SW 20.7 mph 26.5 mph N/A   Clear
2:53 PM 61.0 °F - 41.0 °F 48% 30.02 in 9.0 mi SW 18.4 mph 25.3 mph N/A   Clear
3:53 PM 59.0 °F - 41.0 °F 51% 30.01 in 10.0 mi SW 11.5 mph - N/A   Clear
4:53 PM 55.9 °F - 41.0 °F 57% 30.00 in 10.0 mi SSW 11.5 mph - N/A   Clear
5:53 PM 54.0 °F - 41.0 °F 62% 29.99 in 10.0 mi SSW 10.4 mph - N/A   Clear
6:53 PM 53.1 °F - 41.0 °F 64% 29.97 in 10.0 mi SSW 11.5 mph - N/A   Partly Cloudy
7:53 PM 55.0 °F - 41.0 °F 59% 29.96 in 10.0 mi SW 15.0 mph - 0.00 in Rain Light Rain
8:53 PM 52.0 °F - 44.1 °F 74% 29.94 in 10.0 mi SW 13.8 mph - 0.01 in   Overcast
9:53 PM 53.1 °F - 44.1 °F 71% 29.91 in 10.0 mi SW 17.3 mph - N/A   Overcast
10:53 PM 52.0 °F - 43.0 °F 71% 29.88 in 10.0 mi SW 13.8 mph - N/A   Clear
11:53 PM 51.1 °F - 42.1 °F 71% 29.85 in 10.0 mi SW 17.3 mph - N/A   Clear